Amman, Jordan

2:34 AM EET on December 11, 2016 (GMT +0200)
Marka International

Weather History for OJAM - February, 2014

Change the Weather History Date:

Sunday, February 2, 2014

  Actual Average Record
Temperature  
Mean Temperature 47 °F -  
Max Temperature 51 °F 54 °F 68 °F (2015)
Min Temperature 43 °F 40 °F 30 °F (1997)
Degree Days  
Heating Degree Days 18    
Moisture  
Dew Point 27 °F    
Average Humidity 45    
Maximum Humidity 76    
Minimum Humidity 21    
Precipitation  
Precipitation 0.00 in 0.07 in - ()
Sea Level Pressure  
Sea Level Pressure 29.95 in    
Wind  
Wind Speed 7 mph ()    
Max Wind Speed 18 mph    
Max Gust Speed -    
Visibility 3.1 miles    
Events Rain    
Averages and records for this station are not official NWS values.
T = Trace of Precipitation, MM = Missing Value Source: Averaged Metar Reports

Daily Weather History Graph

Daily Weather History Graph

Search for Another Location

Airport or City:

Trip Planner

Search our weather history database for the weather conditions in past years. The results will help you decide how hot, cold, wet, or windy it might be!

Date:

Astronomy

Feb. 02, 2014 Rise Set
Actual Time 6:29 AM EET 5:10 PM EET
Civil Twilight 6:03 AM EET 5:36 PM EET
Nautical Twilight 5:34 AM EET 6:05 PM EET
Astronomical Twilight 5:05 AM EET 6:34 PM EET
Moon 7:55 AM EET (2/2) 8:16 PM EET (2/2)
Length of Visible Light 11h 32m
Length of Day
10h 41m
Waxing Crescent, 9% of the Moon is Illuminated
Feb 2
Waxing Crescent
Feb 6
First Quarter
Feb 15
Full
Feb 22
Last Quarter
Mar 1
New

Hourly Weather History & Observations

Time (EET) Temp. Windchill Dew Point Humidity Pressure Visibility Wind Dir Wind Speed Gust Speed Precip Events Conditions
1:00 AM 50.0 °F - 28.4 °F 43% 30.04 in 3.1 mi ENE 8.1 mph - N/A   Haze
2:00 AM 47 °F - 20 °F 21% 30.00 in 3 mi SE 6.9 mph - -   Haze
2:00 AM 48.2 °F - 19.4 °F 32% 30.04 in 3.1 mi SE 6.9 mph - N/A   Haze
3:00 AM 46.4 °F 41.9 °F 19.4 °F 34% 30.04 in 3.1 mi East 9.2 mph - N/A   Haze
5:00 AM 45 °F - 19 °F 22% 30.01 in 3 mi NE 11.2 mph - -   Haze
5:00 AM 44.6 °F 41.4 °F 19.4 °F 37% 30.01 in 3.1 mi NE 5.8 mph - N/A   Haze
6:00 AM 42.8 °F 40.1 °F 21.2 °F 42% 30.01 in 3.1 mi East 4.6 mph - N/A   Haze
7:00 AM 42.8 °F 39.3 °F 19.4 °F 39% 30.01 in 3.1 mi SE 5.8 mph - N/A   Haze
8:00 AM 44 °F - 23 °F 30% 30.01 in 3 mi ESE 6.9 mph - -   Haze
8:00 AM 44.6 °F 40.7 °F 23.0 °F 43% 30.01 in 3.1 mi ESE 6.9 mph - N/A   Haze
9:00 AM 44.6 °F 39.7 °F 21.2 °F 39% 30.01 in 2.5 mi ESE 9.2 mph - N/A   Haze
10:00 AM 46.4 °F 41.9 °F 21.2 °F 37% 30.01 in 2.5 mi SE 9.2 mph - N/A   Haze
11:00 AM 48 °F - 22 °F 23% 30.00 in 2 mi East 17.9 mph - -   Haze
11:00 AM 48.2 °F - 21.2 °F 34% 30.01 in 2.5 mi East 9.2 mph - N/A   Haze
12:00 PM 48.2 °F - 21.2 °F 34% 29.98 in 3.1 mi ESE 9.2 mph - N/A   Haze
1:00 PM 50.0 °F - 21.2 °F 32% 29.95 in 3.1 mi ESE 10.4 mph - N/A   Haze
2:00 PM 50 °F - 31 °F 35% 29.95 in 3 mi SSE 6.9 mph - -   Haze
2:00 PM 50.0 °F - 30.2 °F 47% 29.95 in 3.1 mi SSE 6.9 mph - N/A   Haze
3:00 PM 50.0 °F - 26.6 °F 40% 29.89 in 3.1 mi East 9.2 mph - N/A Rain Light Rain
4:00 PM 48.2 °F - 32.0 °F 54% 29.86 in 3.1 mi East 6.9 mph - N/A   Haze
5:00 PM 48 °F - 33 °F 44% 29.88 in 4 mi SE 8.9 mph - -   Haze
5:00 PM 48.2 °F - 33.8 °F 58% 29.86 in 3.7 mi SE 4.6 mph - N/A   Mostly Cloudy
6:00 PM 48.2 °F - 33.8 °F 58% 29.86 in 3.7 mi SE 4.6 mph - N/A   Mostly Cloudy
7:00 PM 46.4 °F 43.5 °F 32.0 °F 57% 29.86 in 3.7 mi SE 5.8 mph - N/A   Scattered Clouds
8:00 PM 46 °F - 35 °F 53% 29.91 in 3 mi ENE 4.6 mph - - Rain Light Rain
8:00 PM 46.4 °F 44.3 °F 33.8 °F 62% 29.89 in 3.1 mi ENE 4.6 mph - N/A Rain Light Rain
8:05 PM 46.4 °F 44.3 °F 33.8 °F 62% 29.89 in 2.5 mi ENE 4.6 mph - N/A Rain Rain
9:00 PM 44.6 °F 42.2 °F 37.4 °F 76% 29.89 in 3.1 mi ENE 4.6 mph - N/A Rain Light Rain
10:00 PM 44.6 °F 42.2 °F 37.4 °F 76% 29.89 in 3.1 mi ENE 4.6 mph - N/A Rain Light Rain
11:00 PM 44 °F - 37 °F 69% 29.90 in 3 mi ENE 4.6 mph - -   Haze
11:00 PM 44.6 °F 42.2 °F 37.4 °F 76% 29.86 in 3.1 mi ENE 4.6 mph - N/A   Haze